Theta_e
320 321 317 315 321 325 322 317 314 316 315 310 312 313 314 317 318 317 316 317 317 320 322 323 325 326 326 327 328 328 327 327 326 322 325 329 323 321 323 321 321 321 321 322 322 324 324 325 326 326 327 328 329 330 332 332 331 332 332 333 334 334 335 336 338 338 338 339 340 340 340 341 340 339 338 339 340 340 340 340 340 340 340 338 336 335 336 335 334 335 333 334 333 332 332 332 331
321 320 317 318 321 324 321 315 312 314 313 309 313 314 315 317 317 316 316 316 317 319 322 322 323 325 325 326 326 327 328 328 328 328 331 326 322 324 323 322 322 320 321 321 322 322 323 324 325 326 327 328 329 329 331 332 332 333 333 334 334 335 335 335 336 337 338 339 339 340 340 340 340 340 338 339 339 340 340 340 339 338 338 337 335 335 335 333 333 334 334 334 334 333 331 331 331
321 319 319 320 320 322 321 316 312 311 310 308 311 316 316 316 316 316 316 316 317 317 319 321 322 324 325 327 327 328 329 329 328 329 330 326 327 327 323 323 321 321 321 321 321 321 322 324 325 326 326 328 328 329 331 332 332 334 334 335 335 336 336 335 335 336 338 338 339 340 340 340 340 339 338 338 339 340 340 339 338 337 336 335 334 334 334 333 333 334 332 332 333 333 331 330 330
321 319 321 322 319 320 320 316 314 311 309 308 309 315 316 315 317 317 318 319 318 317 319 322 324 324 324 327 327 326 327 328 328 327 329 329 327 326 323 323 322 322 322 321 322 321 323 324 325 326 326 327 328 329 331 332 333 333 335 336 337 337 337 336 335 336 337 338 339 340 340 339 339 338 336 337 339 340 339 338 338 337 335 334 334 333 334 334 332 331 331 331 331 332 330 329 328
321 320 321 322 319 319 319 317 317 313 309 310 310 315 317 316 317 318 319 319 318 319 319 322 324 323 322 324 324 325 326 328 328 325 327 327 324 324 324 323 322 322 322 321 322 322 323 324 325 325 326 327 328 329 330 332 333 334 335 336 337 337 337 337 337 336 336 338 339 339 339 339 339 337 336 338 339 339 339 338 337 337 335 334 333 333 334 333 331 329 331 332 330 330 328 327 326
323 322 321 321 319 318 318 316 316 314 313 314 311 315 318 316 317 318 319 319 319 320 321 322 324 324 324 324 323 325 326 327 327 324 325 325 323 323 324 323 323 322 322 322 323 324 323 324 325 325 326 327 328 330 330 331 333 334 335 336 336 336 336 337 338 338 337 337 338 339 339 338 338 337 337 339 339 339 338 337 337 336 333 333 332 333 333 331 331 331 331 331 329 328 327 326 325
323 322 321 320 319 318 317 316 315 315 317 316 313 316 316 317 320 319 320 321 321 322 323 324 323 324 326 324 323 326 324 322 326 325 323 323 322 322 323 323 323 322 322 323 324 325 325 326 326 326 327 328 329 330 331 331 333 334 334 335 335 335 335 336 338 338 338 337 338 339 338 338 338 337 338 339 338 338 338 337 336 334 332 332 332 333 332 330 331 331 330 329 328 327 326 325 324
323 322 320 319 320 320 318 318 317 318 318 316 316 317 317 319 321 321 321 321 322 322 323 324 323 324 326 323 324 326 322 321 323 323 321 321 321 322 323 323 323 323 323 323 324 325 325 326 326 326 327 329 330 330 332 332 333 333 333 333 333 334 335 337 338 338 338 337 337 339 338 338 337 337 338 339 337 338 338 336 335 332 331 331 332 332 331 331 331 330 329 328 327 325 325 324 323
321 320 319 318 319 319 317 317 318 319 319 318 318 317 318 318 319 321 321 322 322 322 324 325 324 325 327 324 326 328 324 322 321 321 321 320 320 321 322 323 323 322 323 323 323 324 325 326 327 327 328 330 331 330 331 332 333 332 333 333 332 333 334 336 337 337 337 337 337 338 338 337 337 338 338 338 338 338 337 336 334 330 330 331 332 332 331 331 330 329 327 327 326 325 324 323 323
320 319 319 319 318 316 315 316 317 318 317 317 317 316 317 317 317 319 320 322 324 325 327 325 324 325 327 327 327 328 325 322 320 321 320 320 320 321 322 322 323 323 322 322 322 324 325 327 327 327 328 330 330 330 331 332 332 332 332 333 333 333 334 336 336 337 337 337 337 338 339 338 338 338 338 338 337 337 336 335 333 330 331 331 331 331 330 330 329 328 326 327 326 324 324 323 322
320 318 318 318 317 315 313 315 316 317 316 317 317 317 317 317 318 318 320 322 324 327 327 325 327 328 328 328 328 327 323 320 320 320 320 320 320 321 321 321 322 323 323 322 322 323 325 326 327 327 327 329 330 330 330 331 332 332 331 331 332 333 334 335 336 336 336 337 337 338 338 338 338 337 337 338 337 336 336 335 333 332 332 331 331 330 329 328 327 327 326 327 326 325 324 322 322
319 319 318 316 317 315 315 316 317 318 318 318 318 318 318 318 319 320 322 323 325 327 328 329 328 328 329 329 329 327 324 322 321 320 320 320 320 320 320 321 322 323 324 323 322 323 324 326 327 327 327 328 329 329 329 330 331 331 330 330 331 332 333 333 334 335 336 336 337 337 338 338 337 336 336 337 337 336 335 334 332 332 331 330 330 328 328 328 328 327 327 327 326 325 324 323 322
319 319 318 316 317 316 317 317 318 319 317 318 318 319 320 320 321 321 322 323 325 327 329 329 327 327 330 330 329 328 329 326 321 320 321 320 320 320 320 321 322 322 323 323 322 323 324 325 326 326 326 327 328 329 328 329 330 329 328 329 329 331 331 332 333 334 335 335 336 336 337 337 337 336 336 336 337 335 334 333 332 332 330 329 329 328 328 329 328 326 326 326 325 324 323 323 321
319 319 318 318 318 317 318 316 317 319 316 317 317 319 321 322 321 320 321 323 323 326 328 327 326 327 329 329 327 327 330 324 320 320 320 319 319 319 320 320 321 321 322 322 321 321 322 324 325 325 326 326 326 327 327 328 329 329 328 327 327 328 329 329 330 331 333 334 335 336 336 337 337 336 336 335 335 334 333 332 331 330 328 328 329 329 328 328 327 326 326 325 325 324 324 323 321
319 319 319 319 319 318 318 317 318 318 316 317 317 318 321 321 321 320 321 322 321 325 326 326 325 325 328 328 324 327 327 320 319 319 319 319 319 319 319 320 320 320 320 320 320 320 321 322 323 324 325 326 326 326 326 327 328 329 329 326 325 325 325 325 325 327 330 332 334 335 336 336 336 336 336 335 334 334 333 331 330 329 329 328 329 329 328 327 325 324 324 323 324 324 324 323 321
319 319 320 319 319 319 319 318 318 318 318 318 316 318 321 320 320 321 321 321 321 324 325 326 324 324 327 327 325 327 323 319 319 318 318 318 318 318 318 318 319 319 319 319 319 319 320 322 322 323 324 325 326 326 326 326 326 328 328 325 324 324 324 323 322 325 328 330 332 334 335 335 336 336 336 334 333 333 332 330 329 329 329 328 328 327 325 324 323 322 323 323 324 324 324 322 320
318 319 320 319 319 319 318 318 318 318 318 318 317 318 319 319 320 320 321 321 321 322 324 324 325 325 325 326 327 325 320 319 319 317 318 318 317 317 317 317 318 318 318 318 319 319 319 321 322 322 323 323 324 325 326 325 325 327 327 324 324 324 323 323 323 326 329 330 331 334 334 335 335 335 334 333 333 332 330 329 329 329 328 327 327 325 323 322 322 323 323 324 324 323 323 321 320
319 320 320 319 319 319 318 318 318 318 317 318 319 318 318 319 319 320 320 321 321 322 323 323 324 325 325 327 327 324 321 319 318 317 318 319 319 319 319 319 318 319 319 319 319 318 319 320 321 322 322 323 324 324 324 323 324 326 326 325 324 324 325 326 325 326 329 331 333 333 334 334 334 334 333 332 332 330 329 329 328 328 326 326 324 323 323 324 324 323 322 323 324 323 323 321 320
319 320 320 318 318 319 318 318 318 318 318 318 319 319 318 318 318 319 320 319 320 321 321 321 322 323 324 326 327 325 322 319 318 317 318 320 321 321 321 321 320 320 320 320 320 319 319 319 320 321 321 323 324 324 324 323 323 324 326 325 324 325 326 326 326 327 328 331 333 332 332 332 332 332 331 331 331 329 328 328 327 326 325 324 323 322 323 324 323 323 322 323 323 323 322 320 319
318 319 319 318 319 319 317 318 320 319 319 319 319 319 318 318 319 319 319 319 319 320 319 319 319 319 319 321 324 326 322 320 318 317 318 319 320 321 321 321 321 321 320 320 320 319 319 319 319 320 320 321 322 324 324 323 322 323 325 325 324 325 326 325 325 327 329 330 331 331 331 331 331 331 330 330 329 328 327 327 326 325 325 324 323 322 323 323 323 322 322 322 323 322 321 319 319
318 319 319 319 318 318 318 318 320 320 320 319 319 319 318 318 319 318 318 318 318 319 319 319 317 316 317 316 319 322 321 321 320 318 319 319 319 320 319 320 320 320 319 319 319 319 318 318 318 318 320 320 321 322 323 323 322 323 324 325 324 324 325 325 323 325 330 330 330 330 330 330 330 330 330 328 327 327 327 326 325 325 324 324 322 321 322 322 322 322 321 322 322 321 320 319 318
317 317 318 318 317 318 318 318 320 321 320 319 319 319 318 317 317 317 317 318 317 316 317 318 317 315 316 316 317 319 319 320 321 321 320 320 319 319 318 318 317 317 317 317 317 318 318 317 318 318 319 319 319 321 322 322 322 322 324 324 324 323 324 324 323 325 329 329 329 329 329 330 329 329 329 327 327 326 326 325 325 324 324 323 322 322 322 322 322 321 321 321 321 320 320 319 318
316 317 316 317 316 317 317 316 320 320 319 319 319 317 316 315 315 316 316 316 315 315 315 316 316 315 315 316 315 315 316 318 320 321 321 321 320 319 319 318 317 317 316 316 316 317 317 317 318 318 318 319 319 319 321 321 321 322 323 323 323 323 323 324 323 324 327 328 328 329 329 329 329 328 327 327 327 326 326 325 324 324 323 322 322 321 321 321 321 321 320 320 320 320 319 318 318
315 316 316 316 315 315 315 315 316 316 317 318 316 315 313 314 315 314 314 314 314 314 314 313 314 314 314 314 314 314 315 317 318 319 320 320 319 319 318 317 316 316 315 315 315 315 316 316 317 318 318 318 318 318 319 319 320 321 322 322 322 324 322 323 324 323 325 327 327 328 328 329 329 328 327 327 327 326 325 325 323 322 322 322 321 320 320 320 321 320 320 319 319 319 319 318 317
315 316 315 315 314 314 314 313 312 313 315 316 314 313 313 313 313 312 312 312 313 313 312 312 313 313 313 313 314 314 315 316 318 318 319 319 318 316 316 315 315 315 314 314 315 315 315 315 316 317 318 318 318 317 318 318 318 320 321 320 322 324 323 323 323 323 324 326 326 326 327 328 328 327 327 326 326 325 324 324 323 321 321 321 321 320 320 319 320 320 319 319 319 318 318 317 316
314 314 314 313 313 313 313 312 311 311 312 313 312 312 312 311 311 311 312 312 312 312 312 313 313 312 313 313 314 314 313 314 315 317 317 317 317 316 315 314 314 313 313 313 314 314 314 314 315 316 317 318 317 317 318 317 317 320 321 320 321 323 324 322 322 324 324 324 326 326 326 326 326 326 326 325 325 324 324 323 322 321 321 321 320 319 319 319 319 319 319 318 318 318 317 316 316
311 312 312 312 312 311 311 311 310 310 310 310 310 310 311 310 309 311 312 312 312 312 314 314 313 312 312 312 312 313 312 312 313 314 314 314 316 316 315 315 314 313 313 313 313 313 313 313 314 315 316 317 317 317 317 316 317 319 320 320 320 322 324 322 321 323 324 324 325 325 325 325 325 324 324 324 323 323 322 321 321 320 320 320 319 319 319 319 319 318 318 318 318 317 316 316 315
310 310 311 311 311 311 310 310 310 309 309 309 309 310 311 309 309 311 312 311 311 312 314 313 312 312 311 311 311 311 311 311 312 312 312 312 313 313 313 313 314 314 313 313 312 312 312 312 313 314 315 316 316 316 316 316 316 317 319 319 319 321 323 321 320 322 323 324 324 324 324 324 324 323 322 322 321 320 320 320 320 320 319 319 319 318 318 318 318 318 317 317 317 316 315 314 314
310 310 311 312 311 311 311 310 309 308 309 308 308 310 311 311 311 312 312 311 311 311 312 311 311 311 311 311 310 309 310 310 311 311 311 311 311 311 311 311 312 312 313 313 312 311 311 311 312 313 314 315 315 316 316 315 315 316 318 318 318 320 321 321 321 320 321 323 323 323 324 323 323 323 322 322 321 320 320 320 319 319 319 319 318 318 317 317 316 316 316 316 315 314 314 313 312
310 310 310 311 311 311 310 309 307 307 309 308 309 312 313 313 313 312 311 310 310 310 310 311 310 311 311 310 309 309 309 310 310 310 310 309 309 309 309 309 310 311 311 312 312 310 310 311 311 311 313 314 315 315 315 315 315 315 317 317 318 320 321 322 322 321 320 322 322 322 323 322 323 323 322 321 320 319 319 319 319 318 318 318 318 317 316 316 315 315 315 314 314 313 312 311 311
311 310 310 310 311 311 309 308 307 308 309 308 309 312 312 312 313 312 311 310 309 309 310 310 310 310 310 309 309 308 309 309 309 309 308 308 307 308 308 308 308 309 310 311 311 310 311 310 310 310 311 312 314 314 314 314 314 314 315 316 316 318 320 321 321 321 320 320 321 321 322 322 322 322 322 321 320 319 319 319 318 318 318 318 317 317 316 315 314 314 314 313 312 311 311 310 309
310 310 310 311 310 310 310 308 307 309 311 310 310 312 313 312 313 312 311 310 309 309 310 310 310 310 309 309 308 308 308 309 309 308 308 307 307 307 307 307 307 308 309 309 310 311 311 311 310 310 310 311 313 314 314 314 314 313 314 314 315 315 317 319 319 320 320 319 319 320 321 321 321 321 321 321 320 320 319 319 318 318 317 317 316 316 315 314 313 312 312 312 312 310 309 309 308
310 309 310 312 311 311 311 309 307 308 310 310 311 312 313 312 312 312 311 310 310 310 309 309 310 309 309 308 308 308 308 308 309 309 308 307 306 306 306 306 307 307 307 307 308 309 310 311 310 309 310 311 312 313 313 313 313 313 313 313 314 314 315 317 317 318 320 320 319 319 319 321 320 320 319 319 320 320 320 319 318 317 317 316 316 315 315 313 313 311 310 310 310 310 308 307 305
311 310 310 311 311 311 311 310 308 307 308 310 311 311 312 312 311 311 310 310 310 309 309 309 309 309 309 309 309 308 308 308 309 309 308 306 306 306 306 306 307 307 307 306 306 307 308 310 310 309 310 311 311 312 313 313 313 312 313 313 313 314 315 316 315 317 319 319 319 318 318 319 319 319 317 318 318 318 319 319 318 317 316 316 315 314 314 312 312 311 310 309 308 308 307 306 304
312 311 310 310 311 310 310 310 308 307 308 309 310 311 311 311 310 311 311 310 309 309 309 309 308 308 309 309 309 308 308 308 309 309 307 306 306 307 307 307 307 307 307 307 306 306 308 309 310 310 309 310 311 311 312 312 312 312 312 312 312 312 313 314 314 315 317 318 318 317 316 317 317 318 317 317 316 314 313 315 317 317 316 315 314 313 312 311 310 310 309 308 307 306 306 305 304
310 310 310 311 311 311 310 311 309 307 309 309 310 311 311 311 310 310 310 310 309 309 309 309 308 309 309 309 309 309 308 308 309 308 306 306 307 307 306 307 307 308 308 308 307 307 308 309 310 310 309 310 310 311 311 311 311 311 311 310 310 311 311 311 312 313 314 316 316 315 314 315 315 315 315 315 314 312 310 310 312 315 315 314 312 311 311 311 310 309 308 307 306 304 303 302 302
309 310 311 311 311 311 311 312 309 307 309 310 310 311 310 310 310 309 309 309 309 309 309 309 310 310 310 310 310 310 309 309 310 308 306 306 306 305 305 305 306 307 308 308 308 309 309 309 309 309 309 309 310 310 310 310 310 310 309 309 309 309 309 309 311 312 312 314 315 314 313 313 313 313 313 312 311 309 308 307 308 310 311 310 308 308 309 310 309 307 306 305 305 303 300 299 300
309 310 311 312 312 312 311 311 309 306 308 310 309 309 309 309 309 309 309 309 309 310 310 310 310 310 310 310 310 310 309 309 309 308 307 306 306 305 304 304 305 306 307 307 308 308 308 308 309 309 309 308 309 309 309 309 309 309 308 308 308 308 307 308 308 310 311 312 312 312 311 310 310 310 310 309 307 306 306 305 305 306 307 307 306 305 306 306 305 304 303 302 301 300 298 297 298
310 311 311 312 313 312 311 311 308 305 307 309 310 309 309 309 309 309 310 310 310 310 310 310 310 310 310 310 310 309 308 308 308 308 308 307 306 304 304 303 303 303 305 306 307 307 307 308 308 308 308 308 308 308 308 308 308 308 308 307 307 306 306 306 307 308 309 308 308 308 308 307 307 306 306 306 306 305 305 305 304 305 305 305 304 303 303 302 301 301 300 300 299 296 295 295 295
311 311 312 312 313 312 311 311 307 306 307 309 309 309 310 310 310 310 310 310 310 310 309 309 309 309 309 310 308 307 307 307 308 307 307 307 306 304 303 302 301 302 303 303 304 305 306 307 307 307 307 307 308 308 307 307 307 307 306 306 305 305 305 305 306 306 306 306 305 305 305 305 305 304 304 304 304 304 304 304 304 303 303 303 302 302 301 300 300 299 298 298 298 295 294 293 293
311 312 312 312 313 312 312 311 308 308 309 308 309 311 311 312 311 310 309 307 308 309 308 308 308 309 308 308 307 305 305 306 307 306 306 305 305 304 303 301 300 301 301 301 301 302 304 305 305 305 305 306 306 307 306 306 306 305 304 304 303 303 303 303 303 303 303 303 303 303 303 303 303 303 303 303 303 303 302 302 302 301 301 300 300 300 300 299 299 298 297 297 297 295 294 293 292
312 312 312 311 312 311 311 311 309 310 311 310 310 311 311 311 310 310 310 308 308 308 307 309 310 310 308 308 307 305 305 305 305 305 304 303 303 303 302 301 299 299 299 298 299 300 302 303 304 304 304 304 305 305 305 304 303 303 302 302 302 302 301 301 301 301 302 302 302 302 302 301 301 301 300 300 300 300 299 299 299 299 299 299 299 298 298 298 298 298 297 297 296 296 295 293 291
311 311 311 310 311 311 311 311 310 310 311 310 310 310 311 311 309 310 310 309 309 309 308 309 310 310 309 310 309 306 305 306 305 303 302 301 302 301 301 299 298 297 297 297 298 299 300 301 302 302 303 303 303 303 304 303 303 302 302 302 302 302 302 301 300 300 301 301 301 300 300 299 298 298 297 297 296 296 296 296 296 296 296 296 297 297 297 297 297 297 296 296 296 295 295 293 291
311 309 308 310 310 310 310 310 310 310 311 310 309 309 311 312 310 309 310 310 310 310 309 310 310 309 309 309 309 307 306 305 305 304 301 300 300 299 298 297 296 295 295 297 298 299 300 300 300 301 301 301 301 302 302 302 303 302 301 302 302 301 301 301 300 300 300 300 300 299 298 297 297 296 295 294 294 293 293 294 293 293 293 293 294 294 295 295 295 295 295 294 294 294 293 293 292
310 306 306 308 309 309 310 310 310 310 309 310 311 310 311 312 311 308 308 309 309 309 309 310 310 309 310 310 309 308 306 304 303 302 300 298 298 297 296 296 295 294 294 295 296 297 298 299 299 300 300 300 300 301 301 301 302 301 301 301 300 300 300 300 300 299 298 298 298 297 296 296 296 295 294 293 292 292 292 292 292 292 292 292 292 292 292 293 293 293 293 293 293 293 293 293 292
307 305 307 308 308 308 309 309 310 310 310 311 311 310 310 311 310 307 307 309 309 309 310 310 310 310 310 310 309 308 306 303 301 299 298 297 297 295 295 295 294 293 293 294 295 295 296 297 297 298 298 298 298 299 299 300 301 300 300 300 300 299 298 298 297 296 295 295 294 294 294 294 293 293 292 291 291 290 290 290 291 290 290 290 290 291 291 291 291 291 292 292 292 292 292 291 291
305 307 309 309 308 307 307 308 308 310 312 312 311 310 309 310 310 309 308 308 309 310 309 309 310 309 309 309 309 308 305 303 300 298 297 297 296 295 294 294 294 293 292 293 293 293 293 294 294 295 295 295 296 297 297 297 298 298 298 298 298 297 296 296 295 294 293 292 292 292 291 291 290 290 290 290 289 289 289 289 289 289 289 289 289 289 289 290 290 290 290 290 290 290 290 290 290
306 309 309 310 309 306 307 308 308 311 313 310 309 310 310 310 310 309 308 308 308 310 310 309 310 309 309 310 309 307 304 301 300 299 297 297 296 295 294 294 293 292 291 291 291 291 291 292 292 292 292 293 293 294 294 295 295 296 296 296 296 296 295 295 295 294 293 292 292 291 290 290 290 290 289 289 289 289 289 289 289 288 288 288 288 288 288 288 288 289 289 289 289 289 289 289 289
307 309 309 311 311 309 310 311 310 312 312 308 306 308 309 309 309 309 308 307 307 309 310 310 309 309 309 310 309 306 302 300 299 298 297 296 295 295 294 292 291 291 290 289 289 289 290 290 291 291 291 291 292 292 293 293 293 293 294 294 294 294 294 294 294 293 292 292 292 291 290 290 290 290 289 289 289 289 289 288 288 288 287 287 287 287 287 287 287 287 288 288 288 288 288 288 288
307 309 310 311 312 312 312 312 310 311 310 306 304 307 308 308 309 309 308 308 308 308 309 309 309 308 308 309 308 304 301 299 297 297 296 295 294 293 292 291 290 289 288 288 288 288 288 288 289 289 289 289 290 290 291 291 291 291 291 291 292 292 292 292 292 291 291 291 291 290 290 290 289 289 289 289 288 288 288 288 288 288 287 287 287 286 286 286 286 286 287 287 287 287 287 288 288
308 309 309 311 311 311 312 311 310 311 310 306 304 306 309 309 308 308 308 309 309 308 308 308 307 306 306 306 305 303 301 298 296 295 294 292 292 291 290 289 288 288 287 287 287 287 287 287 287 287 287 287 287 288 288 288 288 288 289 289 289 290 290 290 290 290 289 289 289 289 289 288 288 287 287 287 287 287 287 287 287 287 286 286 286 285 285 285 285 285 286 286 286 286 287 287 287
308 308 309 310 310 309 310 309 309 309 310 309 307 308 309 308 307 306 307 308 307 307 307 307 306 307 306 306 304 302 300 297 295 294 293 291 290 289 288 288 287 286 286 286 286 285 286 286 286 286 285 285 285 285 286 286 286 287 287 287 288 288 288 288 287 287 287 287 287 287 286 286 286 285 285 286 286 286 286 286 286 286 285 285 285 285 285 285 284 284 285 285 285 285 286 286 286
308 307 309 308 306 307 309 310 308 308 310 311 310 309 309 309 308 306 306 307 307 306 306 306 307 307 306 306 305 302 300 297 294 293 291 289 289 288 287 286 285 285 285 284 284 284 284 284 284 284 284 283 283 283 283 284 284 285 285 285 285 286 285 285 285 285 285 286 285 285 285 285 285 285 285 285 285 284 284 285 285 285 285 285 284 284 284 284 284 284 284 284 284 285 285 285 286
307 308 309 307 306 308 308 310 310 310 312 312 310 310 310 310 309 307 306 306 307 307 307 307 307 307 307 306 304 301 298 295 293 291 289 288 288 287 286 285 284 284 283 283 283 283 283 283 283 283 282 282 281 281 281 282 283 283 283 283 284 284 284 284 283 283 284 284 284 284 284 284 284 284 284 284 284 284 284 284 284 283 284 284 283 283 283 283 283 283 283 283 284 284 284 285 285
306 307 307 306 309 311 309 310 311 312 312 312 312 311 310 310 310 308 307 307 307 307 307 307 307 307 306 305 303 301 297 294 292 290 288 287 287 286 285 284 283 282 282 282 282 282 282 281 281 281 280 280 279 279 279 280 281 281 281 281 282 282 282 282 282 282 282 283 283 282 282 282 282 283 283 283 283 283 283 283 283 283 282 282 282 282 282 282 282 283 283 283 283 283 283 284 284
305 306 306 306 308 310 310 309 310 311 311 312 312 312 311 310 308 308 307 307 307 307 307 307 307 306 305 304 304 302 298 294 292 290 288 286 285 284 283 282 282 281 281 281 281 281 281 280 280 279 279 278 278 278 278 278 278 278 279 279 280 280 280 281 281 280 280 280 280 280 280 280 281 281 281 282 282 282 282 282 282 282 282 282 281 281 281 281 281 282 282 283 283 282 282 283 283
307 308 308 307 307 307 308 308 308 309 310 311 311 312 311 308 307 307 307 307 307 307 307 307 307 305 304 303 302 301 298 294 291 289 287 285 284 283 282 281 281 281 281 281 280 280 280 279 278 277 277 276 276 276 276 276 276 277 277 278 278 278 279 279 279 279 278 278 278 279 279 279 279 280 280 280 280 281 281 281 281 281 281 281 280 280 280 280 280 281 281 281 281 281 281 282 282
310 310 310 309 309 309 309 310 310 309 309 310 310 311 311 308 307 307 307 307 308 307 307 306 305 304 304 303 299 297 296 292 289 287 285 284 283 283 282 281 281 280 280 280 279 279 279 278 277 276 275 275 275 275 275 274 274 275 275 276 276 276 277 277 277 276 276 276 276 276 277 277 277 278 278 278 279 279 279 279 280 280 280 280 280 280 280 279 279 279 279 279 279 279 279 280 280
Wind_Speed
9 8 5 0 1 2 3 1 3 2 2 5 3 2 2 2 1 4 4 2 2 0 1 3 2 3 5 6 6 8 8 8 9 7 3 3 2 8 6 5 6 7 9 14 17 15 13 15 17 17 15 13 12 12 12 14 16 19 20 20 20 18 17 18 17 16 16 16 16 17 17 17 16 16 16 17 17 17 18 19 20 24 25 21 20 22 28 29 26 23 23 23 23 24 23 19 16
8 5 2 1 1 3 2 0 4 2 4 5 2 3 1 2 2 5 4 2 2 2 2 4 4 6 6 7 7 8 9 11 13 8 3 3 8 9 7 5 5 7 9 11 12 12 10 12 15 15 15 14 13 13 12 13 14 15 17 18 19 18 18 19 18 18 17 16 16 17 17 17 16 15 17 17 16 17 17 17 18 20 20 21 24 24 25 27 27 24 21 21 20 20 22 20 17
7 2 0 2 2 2 1 1 5 3 4 5 2 2 2 1 3 2 3 4 4 3 4 5 5 5 6 7 6 6 6 5 10 6 2 8 8 5 6 6 6 7 8 8 8 9 10 12 14 14 15 14 14 14 12 13 15 15 16 17 18 18 19 19 20 20 19 17 16 16 16 16 15 16 18 18 17 17 15 13 14 16 20 26 29 27 26 27 28 25 20 20 20 20 21 20 18
4 1 3 3 2 2 2 3 4 3 5 4 2 2 1 2 1 2 4 5 5 5 5 4 3 2 5 8 3 4 7 3 2 3 2 4 3 4 7 7 7 7 6 6 6 8 10 13 15 14 15 15 15 14 14 14 15 15 15 15 17 18 19 20 20 21 20 19 17 17 17 17 16 16 17 17 18 17 15 14 16 20 26 30 29 26 25 26 25 23 21 21 21 20 21 20 18
0 2 2 3 2 1 2 2 2 4 4 2 3 2 2 2 0 6 7 6 6 6 5 3 3 1 4 6 2 3 5 1 2 3 3 3 5 8 8 7 7 7 6 5 5 6 9 12 15 15 15 15 15 14 15 16 15 16 15 15 16 17 19 20 21 21 21 20 20 19 18 18 17 16 16 17 18 17 16 17 19 24 28 29 28 26 26 26 24 23 23 23 22 20 18 19 18
3 3 2 1 1 1 2 3 3 5 2 1 4 0 3 3 4 8 9 9 5 3 4 4 4 3 5 4 5 5 3 2 2 3 4 4 7 8 8 8 8 8 7 6 6 6 8 10 13 15 15 14 14 14 15 17 16 16 16 15 16 17 19 21 21 21 21 22 22 21 20 20 18 16 16 17 18 17 19 20 21 26 28 26 26 27 27 26 23 24 27 25 22 19 17 18 18
4 3 2 1 2 1 5 5 5 5 0 0 5 3 4 5 3 7 10 9 2 2 2 3 2 5 6 1 4 6 6 6 2 4 5 7 9 9 9 9 9 9 8 7 7 8 9 10 11 12 14 14 15 14 15 16 16 17 17 17 17 17 18 20 21 20 21 23 23 22 21 21 19 17 17 18 18 20 22 22 24 27 27 26 27 28 27 25 24 26 28 25 21 20 19 19 20
3 2 0 3 2 2 5 5 5 4 0 1 5 6 8 7 4 6 9 7 4 3 2 3 2 6 4 1 4 2 5 11 11 13 11 11 11 10 10 10 10 9 9 8 9 10 10 11 11 11 13 14 14 13 13 14 15 16 17 17 18 18 19 20 20 20 21 23 24 22 21 22 20 18 18 19 20 23 24 23 26 27 27 28 28 26 27 26 27 29 26 24 22 22 21 21 21
2 1 1 3 3 3 5 5 5 3 3 3 6 7 9 9 7 7 9 9 7 7 4 2 3 6 4 3 7 1 2 9 12 15 14 14 12 11 11 11 11 10 9 8 10 12 11 11 12 12 13 14 13 11 11 12 14 15 15 15 16 18 19 20 20 20 21 23 24 23 22 22 21 20 20 20 21 25 25 24 27 28 28 29 28 28 28 27 27 27 24 23 24 24 23 22 21
1 1 1 2 3 5 6 6 3 1 4 4 6 9 10 9 8 7 9 9 6 6 2 1 5 9 8 8 9 3 3 5 8 12 12 14 13 13 13 12 13 11 8 7 9 12 13 13 13 12 11 13 13 12 11 12 13 13 13 14 15 16 18 20 20 21 22 24 24 23 22 23 23 22 22 22 23 26 26 26 27 29 29 29 30 30 29 27 26 26 25 24 23 22 22 22 20
2 1 1 3 4 6 6 5 3 1 3 5 6 9 10 7 6 7 8 8 6 5 1 2 4 8 10 9 6 3 6 8 9 10 11 12 13 14 13 13 15 13 11 9 10 13 14 14 13 12 12 14 14 13 12 12 12 12 13 13 14 15 16 18 20 21 22 24 24 24 24 24 24 24 23 23 25 27 28 29 29 30 31 31 31 30 27 26 27 28 29 25 22 21 20 21 20
3 2 2 4 5 5 5 6 5 4 6 6 5 3 3 4 5 5 6 7 6 6 4 5 2 2 6 7 3 2 6 10 9 10 11 11 13 14 13 15 16 15 14 13 13 13 14 15 13 12 13 15 14 14 13 13 12 11 12 12 14 14 16 18 19 21 22 23 24 25 24 24 25 25 24 24 26 29 31 34 33 32 32 31 29 30 27 27 28 30 30 25 22 21 20 20 20
3 2 3 4 2 4 5 7 5 5 7 4 1 1 1 4 5 5 7 7 7 8 4 6 3 1 6 7 5 6 5 7 8 10 11 12 13 14 14 16 17 16 15 15 15 14 14 15 15 14 15 16 16 15 14 13 13 12 12 11 13 14 15 17 18 20 21 23 24 26 25 25 26 25 25 25 27 30 34 36 34 32 32 29 28 30 29 28 29 29 28 24 22 21 20 19 20
3 2 4 4 1 4 5 6 5 4 4 1 1 1 3 5 4 6 6 9 10 5 1 3 3 2 7 6 5 5 1 2 6 7 10 13 13 15 15 16 19 17 16 16 16 15 14 16 17 16 16 18 17 16 14 14 14 13 13 12 12 13 15 16 17 19 20 22 23 25 26 26 26 26 26 27 29 31 34 34 32 31 30 29 31 31 28 27 27 26 25 23 22 22 21 19 21
2 2 3 4 2 4 4 5 5 4 3 1 1 1 4 6 5 6 6 9 8 1 2 2 5 3 3 3 7 4 3 2 5 8 9 11 13 15 16 17 19 18 16 15 16 16 15 16 17 17 18 19 18 16 14 14 15 15 14 13 12 13 14 16 18 20 20 20 22 24 25 26 27 26 27 29 32 34 35 33 32 31 31 31 32 29 27 26 25 24 24 23 23 23 21 21 23
2 3 3 4 4 4 3 4 4 5 3 1 2 1 6 7 4 6 5 6 7 1 3 4 7 6 4 7 12 7 6 9 9 11 11 12 14 15 17 18 20 20 18 16 17 18 17 17 18 19 19 19 18 17 16 15 16 16 15 14 13 12 13 15 19 21 19 18 19 22 24 26 27 27 27 30 33 35 35 32 33 33 32 32 30 27 26 26 24 23 24 24 25 24 22 23 24
2 4 4 5 5 5 3 4 4 2 2 1 2 3 8 10 3 4 2 4 10 7 6 7 7 7 9 12 14 11 13 15 14 15 12 12 12 12 13 15 17 19 21 21 19 20 20 19 20 20 20 20 20 20 19 18 18 17 15 14 13 12 13 15 17 18 16 15 17 20 21 22 26 27 26 29 32 34 33 32 33 33 31 31 30 27 26 26 25 24 24 24 25 26 25 25 23
4 4 5 6 6 6 4 6 5 2 5 5 4 3 7 12 7 3 3 7 11 10 10 11 9 10 15 18 18 19 18 17 17 15 11 11 10 9 10 10 12 14 18 20 18 20 21 21 22 22 22 21 22 22 22 21 19 19 16 14 13 11 12 14 15 14 13 14 16 17 17 18 21 22 25 31 32 31 31 31 31 29 29 29 29 27 26 26 25 26 25 24 26 26 28 26 22
6 4 5 7 7 3 2 7 7 5 8 9 9 6 6 10 9 4 7 12 9 11 13 11 12 12 15 18 19 19 17 17 16 13 11 13 12 11 12 11 12 14 15 15 15 19 21 22 24 25 24 23 23 22 23 22 20 19 16 15 13 10 11 14 15 13 13 14 14 16 15 16 17 18 25 33 32 30 30 30 29 27 27 27 27 28 27 24 24 25 24 25 26 27 28 26 23
6 5 7 7 6 4 3 7 8 8 9 11 12 6 5 8 6 4 9 15 12 12 14 11 12 12 12 13 12 10 9 12 13 12 13 14 14 13 14 13 13 14 13 13 16 19 20 21 23 26 27 25 25 24 24 23 20 17 15 16 14 9 10 14 15 14 15 15 14 15 16 19 22 23 27 32 32 30 30 30 30 28 28 27 25 28 28 24 24 24 23 25 27 29 28 26 24
4 6 9 5 2 5 6 7 9 9 7 9 10 6 8 7 4 7 11 14 11 10 11 10 13 16 16 15 11 7 7 10 11 12 13 13 15 14 14 16 17 14 12 15 18 19 20 21 23 24 26 27 27 26 26 24 20 17 16 18 17 11 10 13 15 15 18 21 18 16 18 23 23 25 29 30 31 31 30 31 31 30 29 28 25 27 29 26 26 25 24 26 28 30 29 26 24
3 8 11 7 3 6 6 4 6 6 5 7 9 9 8 5 4 9 11 12 12 11 11 11 14 17 17 15 13 11 10 11 11 12 13 14 15 15 16 17 18 16 16 20 21 19 20 23 23 21 23 26 28 28 26 23 20 18 18 21 21 14 10 12 15 16 19 24 24 21 22 25 24 27 31 31 32 33 33 33 32 31 30 29 28 28 30 29 30 30 28 28 29 29 27 26 24
6 8 9 9 7 8 7 3 3 4 6 9 9 7 5 7 11 10 12 15 16 17 15 13 15 17 16 14 13 13 12 12 12 14 14 14 15 16 16 15 15 14 15 21 22 20 21 25 22 20 21 22 25 28 28 23 19 19 18 22 24 17 11 12 16 16 17 22 27 27 26 27 27 29 32 31 32 33 34 34 33 33 32 32 33 31 31 31 32 32 31 29 29 30 28 27 25
8 9 7 7 6 7 9 4 2 4 8 11 9 8 8 13 13 8 11 15 17 18 15 13 14 14 13 12 12 12 12 12 13 16 15 13 16 17 15 14 16 14 15 22 23 21 24 26 21 20 22 21 20 22 28 26 22 20 18 22 27 22 16 12 15 18 17 19 24 28 27 28 28 29 31 32 33 33 34 35 35 35 35 34 35 34 32 32 32 31 31 30 29 29 28 27 25
10 11 7 5 4 7 8 5 6 8 10 9 9 13 14 13 11 11 16 15 14 13 11 11 10 9 10 10 11 11 11 12 13 15 14 12 14 16 15 16 18 16 20 26 24 24 26 24 21 21 22 22 19 17 22 25 25 23 19 23 28 27 23 15 15 20 19 20 23 24 27 28 29 30 31 32 33 34 34 35 36 37 36 36 35 34 33 32 31 31 31 30 29 29 27 26 25
6 8 6 6 8 9 9 9 10 10 8 4 8 17 14 6 7 12 14 10 6 7 8 8 7 9 10 9 10 10 11 14 14 14 14 12 10 13 15 15 16 18 23 25 23 26 25 22 23 23 22 22 21 17 18 20 24 25 21 24 29 29 26 17 16 21 21 22 23 24 25 26 28 31 33 34 35 36 36 37 37 37 36 35 34 33 34 33 32 31 30 30 29 29 28 27 25
1 5 8 10 12 11 9 11 12 8 7 6 10 17 11 1 3 8 5 3 2 4 7 8 8 12 13 11 10 10 11 16 16 14 15 15 11 11 14 13 14 18 20 22 24 25 24 24 25 23 21 21 21 20 19 18 21 24 23 22 26 32 29 17 16 21 23 23 23 24 24 25 27 30 33 34 35 36 37 36 35 34 34 34 34 33 34 34 34 33 31 30 29 29 28 27 25
4 6 11 13 12 11 11 12 11 5 5 7 10 14 11 3 5 10 4 1 2 6 9 11 11 13 14 13 11 9 11 16 16 13 13 16 13 13 15 14 14 16 17 20 22 21 23 25 24 22 20 20 21 22 20 19 20 22 24 21 22 31 31 21 16 20 24 26 24 24 24 25 26 27 29 31 33 33 34 34 33 32 32 32 32 32 32 32 33 32 31 30 30 30 28 27 25
4 5 10 14 13 12 12 9 5 4 3 4 6 9 9 8 10 10 3 0 4 9 12 14 14 13 13 11 9 9 11 14 14 12 12 14 15 14 16 16 14 15 16 18 19 21 23 23 22 21 19 20 23 23 21 20 20 20 23 24 25 31 32 27 24 19 22 27 26 26 26 26 27 27 28 31 32 33 33 33 33 32 32 32 31 31 31 31 32 32 32 31 31 30 28 27 25
4 2 5 11 12 9 5 4 3 3 2 5 6 6 5 7 10 7 4 2 5 10 15 16 16 14 11 8 8 11 12 12 11 11 12 12 14 13 15 17 14 15 17 17 18 22 23 21 22 21 19 21 22 23 22 21 21 20 21 22 27 35 35 34 33 25 23 29 28 27 28 27 28 28 28 31 32 32 33 32 33 34 33 33 32 32 31 32 33 33 33 32 31 29 27 26 26
4 3 2 5 8 3 5 6 4 3 1 6 7 6 5 10 10 5 6 3 4 11 17 18 17 14 11 9 10 12 11 10 10 11 11 10 11 11 13 16 14 15 17 17 18 21 20 19 21 21 21 22 22 23 23 22 20 19 20 21 23 31 35 37 37 32 29 28 29 29 29 29 29 30 31 32 33 32 32 33 34 35 35 34 34 33 32 32 33 33 34 33 31 28 27 27 27
2 4 5 4 5 5 4 6 6 4 2 6 8 6 5 9 11 5 4 4 5 12 18 18 18 15 13 12 11 10 10 10 9 8 7 7 8 9 12 14 15 15 16 18 18 18 17 17 20 21 20 20 21 22 22 22 21 19 20 23 24 25 31 35 32 33 33 29 29 29 29 30 30 33 34 33 34 34 34 35 35 36 36 35 34 34 34 34 34 34 34 33 32 30 29 29 29
4 5 7 6 6 6 4 4 6 4 2 7 11 7 6 7 11 13 8 8 10 14 17 18 17 14 13 11 9 8 8 9 8 6 6 7 8 9 12 13 15 15 15 17 17 16 16 15 18 20 18 18 19 20 20 21 22 21 20 23 28 28 32 35 28 31 36 33 32 30 29 31 31 33 35 34 35 36 36 36 36 37 36 35 35 34 35 35 36 36 34 33 32 31 30 30 29
4 5 6 7 7 7 6 4 5 4 4 7 11 10 11 12 13 18 17 14 12 14 18 17 14 13 13 10 8 7 6 7 7 7 9 8 8 10 13 15 17 17 16 15 15 15 15 13 15 18 18 16 17 18 18 19 21 22 21 20 25 29 32 34 31 34 38 35 34 32 31 32 32 33 34 34 35 36 37 38 38 37 36 36 35 35 35 36 36 35 34 32 31 30 30 30 29
4 4 5 6 7 8 10 8 3 5 6 8 10 12 15 16 15 18 18 13 12 16 17 13 12 14 12 9 7 6 6 6 4 7 10 9 10 12 14 17 18 18 17 15 13 12 13 12 12 14 15 14 15 15 16 18 20 21 21 17 20 26 28 29 31 33 35 35 34 32 31 31 31 33 34 35 36 35 33 35 37 37 37 38 37 36 35 35 34 33 33 32 31 30 29 30 30
4 4 5 7 7 9 13 11 3 4 7 11 13 15 14 14 15 16 16 13 14 18 17 11 11 12 9 7 6 4 5 6 3 5 8 8 11 13 14 15 17 16 15 15 13 10 9 9 9 10 11 12 12 13 14 16 20 21 19 17 20 24 26 27 29 30 30 32 32 31 30 30 30 32 34 35 35 33 30 29 33 36 38 39 38 37 36 35 34 34 34 33 32 30 27 27 27
4 5 6 8 9 10 14 11 2 4 6 10 13 14 13 13 15 17 17 15 15 19 16 12 12 9 6 6 5 3 5 5 3 3 4 6 9 11 12 13 14 14 13 14 13 10 8 7 8 8 8 10 11 11 13 15 18 20 17 18 22 23 25 27 28 30 30 31 32 31 30 30 30 32 33 33 31 30 28 27 28 32 34 34 33 32 33 33 32 32 32 31 31 29 26 25 26
7 8 7 9 10 11 14 10 1 4 3 7 10 13 13 14 17 18 17 16 17 17 13 12 12 8 5 6 4 3 4 5 4 3 3 4 7 9 9 10 12 13 13 14 12 10 9 7 7 7 6 8 10 11 13 14 16 17 15 17 20 19 22 24 25 28 30 30 30 30 30 29 28 29 29 29 27 25 23 22 21 24 26 27 27 27 28 29 29 30 30 29 27 26 24 24 27
8 7 7 8 8 9 11 8 1 3 4 6 9 12 13 16 20 20 18 16 15 13 11 12 10 6 6 4 2 3 5 6 6 5 4 4 6 7 7 8 10 12 12 13 13 12 9 7 6 6 6 7 9 10 12 13 14 14 12 12 13 15 18 21 23 25 26 27 26 26 27 26 25 26 25 25 24 22 21 19 18 19 20 22 23 23 24 25 26 27 27 27 24 22 19 21 25
8 7 7 9 7 5 7 4 2 2 6 8 12 13 13 15 17 15 13 12 11 9 8 9 8 7 7 2 1 4 5 6 6 6 5 5 6 6 7 8 10 10 11 12 13 12 10 8 6 6 6 7 8 9 11 12 14 13 11 10 12 14 16 18 20 21 21 22 22 22 22 22 22 22 22 21 20 20 19 19 19 19 19 20 20 20 22 21 22 24 25 26 24 20 18 18 23
9 9 10 10 10 9 9 3 4 7 7 5 10 12 9 8 9 7 4 3 5 6 5 7 8 7 6 2 2 5 5 5 6 6 6 6 7 8 8 9 11 10 11 13 14 12 10 9 8 6 6 6 7 8 9 11 13 12 11 10 10 11 11 13 15 16 17 18 18 19 19 19 19 18 18 18 17 17 16 16 17 17 17 17 17 18 19 20 21 23 23 25 25 22 19 18 21
7 11 15 16 14 13 12 5 5 8 5 1 7 10 5 5 7 7 5 4 6 4 4 8 8 6 5 3 4 5 5 4 4 5 6 6 8 9 10 11 12 11 12 13 13 11 10 9 8 6 5 5 6 7 8 9 9 9 9 9 8 8 8 9 11 13 15 17 17 17 16 16 16 16 16 15 15 14 14 13 13 14 14 15 16 16 17 18 20 21 22 23 24 23 20 18 19
6 5 10 16 15 12 10 7 4 5 4 2 4 6 7 2 6 8 7 7 9 6 5 8 7 4 4 3 2 2 3 3 3 3 3 5 7 8 9 10 11 10 12 12 11 10 9 8 7 6 5 4 5 6 7 8 8 8 9 9 8 9 8 9 11 12 13 14 15 14 13 13 12 12 12 12 11 11 10 10 10 11 12 13 14 15 17 18 19 19 20 21 22 23 22 18 17
5 1 2 7 9 9 8 7 6 5 6 1 4 6 10 6 4 7 6 7 10 7 7 9 7 6 4 2 2 2 3 2 1 1 1 3 4 5 7 8 8 9 10 10 9 8 8 6 6 4 3 4 5 6 7 8 8 8 9 9 8 8 8 9 11 12 11 10 10 10 9 8 7 7 8 8 9 9 10 10 11 11 13 13 14 16 17 18 18 19 19 20 21 21 22 20 17
1 3 1 3 3 4 4 5 5 5 5 4 7 7 7 8 4 5 3 7 10 9 10 11 9 7 4 3 4 3 3 2 1 1 1 1 2 3 4 5 6 7 8 8 8 7 7 6 5 4 3 3 5 7 7 8 9 9 10 10 10 9 10 10 9 9 9 8 8 8 7 7 7 7 8 9 10 11 11 11 11 12 13 14 14 15 17 18 19 19 20 20 21 21 22 23 21
3 5 4 4 3 2 2 4 4 4 5 7 8 10 6 8 4 7 3 6 10 10 10 11 9 5 4 4 6 5 2 1 1 1 1 0 1 1 2 3 4 6 6 6 6 6 5 5 4 3 3 3 4 6 7 9 11 11 11 12 12 10 9 8 7 7 7 8 8 8 9 8 9 9 9 10 10 10 10 9 10 11 13 14 15 16 17 18 19 19 20 20 20 21 22 23 24
5 7 4 2 2 2 1 3 2 5 7 8 11 15 10 6 2 8 5 4 7 9 10 10 7 5 6 6 7 5 1 1 2 2 1 1 1 1 1 3 4 6 6 6 6 5 5 4 4 2 1 1 2 3 4 6 8 8 8 8 9 8 8 7 6 5 5 5 5 6 7 7 8 8 8 9 9 10 10 10 11 12 14 15 16 16 16 16 17 17 17 18 18 19 20 22 23
3 4 3 2 3 2 2 3 2 6 7 2 4 10 13 9 3 5 5 3 6 9 9 11 10 9 7 7 5 2 0 1 1 1 1 1 1 1 2 3 5 6 7 7 7 6 5 5 5 4 3 3 2 1 1 2 4 5 5 5 5 6 7 7 6 5 6 5 5 5 6 6 7 7 7 8 8 8 8 9 10 11 11 12 12 12 13 14 14 15 16 17 17 18 20 21 22
4 4 4 4 3 2 4 4 3 7 6 2 4 4 8 10 7 6 6 5 7 8 7 8 10 8 8 8 4 1 1 1 1 1 1 0 1 2 3 4 5 6 7 8 8 7 6 6 6 5 5 5 4 3 2 1 1 2 3 4 5 5 6 5 5 4 5 5 5 6 5 6 6 6 6 6 6 6 7 8 8 8 9 9 9 9 10 12 13 14 15 16 17 18 19 21 22
8 7 6 5 4 3 6 5 3 6 4 3 5 1 4 7 7 9 12 11 9 8 8 7 6 7 9 8 3 1 1 1 1 1 0 1 2 3 4 5 5 6 8 8 8 8 7 7 7 7 7 6 5 5 4 4 3 3 2 1 1 3 3 4 3 3 4 4 4 5 5 4 4 4 5 5 6 6 7 8 8 8 8 8 9 9 9 11 11 13 14 15 16 16 17 19 20
9 6 4 5 5 4 5 4 4 6 5 1 4 1 4 3 1 4 8 6 5 5 6 6 5 7 7 5 2 1 2 1 1 1 1 2 3 3 4 5 6 6 8 8 9 9 8 9 9 9 8 8 7 6 6 6 5 5 4 3 2 1 1 2 1 2 2 2 2 3 3 3 4 4 5 5 6 6 7 7 7 8 9 9 9 9 9 9 10 11 12 13 14 13 13 15 16
5 4 4 5 4 4 5 5 3 4 7 4 4 3 5 2 3 4 4 3 2 2 3 5 7 7 5 5 2 2 2 2 1 0 1 2 3 4 4 5 5 6 8 8 9 10 10 9 9 10 10 10 9 8 7 7 6 6 5 4 4 4 3 3 2 2 3 4 4 3 3 4 5 5 6 7 7 7 7 7 7 7 7 7 7 7 7 7 8 9 10 11 12 11 11 11 10
5 5 5 2 1 2 5 5 1 1 8 7 4 6 7 2 2 6 5 3 4 4 5 7 7 7 5 4 1 2 2 2 1 1 1 2 3 4 4 5 6 7 8 9 10 10 10 10 10 11 11 11 11 10 9 8 7 7 7 6 5 5 5 4 3 3 4 6 6 5 4 5 6 6 7 7 7 7 7 7 6 6 6 6 6 6 6 6 6 7 8 9 10 10 11 10 9
4 4 4 4 2 1 2 4 3 3 8 7 5 10 10 6 4 4 6 6 6 5 6 6 6 7 5 2 2 1 1 3 2 2 3 3 3 4 5 6 7 8 8 9 10 10 11 11 12 12 13 13 12 11 10 9 8 9 8 8 7 6 6 5 5 4 4 5 5 5 4 4 5 5 5 5 6 6 6 6 6 5 5 5 5 5 5 5 6 6 7 8 9 9 9 9 9
1 0 1 2 2 2 2 3 4 5 8 8 9 12 11 8 5 5 7 7 6 5 5 5 7 6 2 4 3 0 2 2 2 2 2 2 3 4 5 6 7 8 9 9 10 11 11 12 13 13 13 13 12 11 11 10 10 10 10 9 9 8 8 7 6 5 4 4 4 4 4 3 3 3 3 3 3 4 4 5 5 5 5 5 5 5 5 5 5 5 6 7 8 8 9 8 8
2 0 2 1 2 2 2 2 2 5 8 9 10 12 9 4 3 4 3 3 3 3 5 7 5 3 4 4 3 1 1 2 2 3 3 3 5 5 6 7 7 8 9 9 10 11 12 12 14 14 13 13 12 12 12 12 11 11 11 11 11 10 9 8 8 7 6 6 6 6 5 5 4 4 4 4 3 3 3 3 3 3 4 4 5 5 5 6 5 5 5 5 6 8 8 8 8
5 5 5 3 1 0 2 2 1 3 7 8 8 12 9 1 5 3 2 3 3 5 9 7 4 6 4 3 4 5 2 2 3 3 3 4 6 6 7 7 7 8 9 10 11 12 13 13 14 14 14 14 13 12 12 12 11 10 11 11 11 10 10 9 9 8 8 8 7 6 6 5 5 5 5 5 5 5 5 4 3 3 2 2 2 3 4 4 5 6 6 7 7 8 8 8 8
4 5 7 8 6 3 3 5 3 2 6 7 6 12 12 1 5 3 2 2 4 5 6 6 6 7 7 5 4 4 3 3 4 4 5 5 5 6 7 7 8 9 10 11 12 12 13 14 15 15 15 14 14 13 13 12 10 10 11 12 11 11 11 10 10 9 9 9 9 8 7 6 5 5 5 5 5 5 5 5 4 4 4 3 2 1 0 1 3 4 5 6 7 7 7 8 7
Wind_Direction
338 340 344 35 126 195 189 216 249 191 237 267 250 265 212 186 326 267 244 204 245 163 65 304 283 256 271 291 310 317 297 268 266 272 308 75 323 314 307 268 245 234 218 213 212 210 209 211 210 211 213 214 217 216 213 208 210 212 213 216 217 219 222 222 222 221 222 224 228 230 230 231 232 236 235 234 236 237 241 241 242 241 242 237 211 178 157 154 155 163 163 156 160 164 161 162 163
335 340 351 138 150 229 180 13 270 218 233 270 236 235 43 113 235 259 272 278 297 30 7 289 269 256 260 280 290 287 274 239 243 276 349 317 316 317 301 278 248 232 222 222 217 216 221 217 214 216 218 219 223 221 214 207 206 210 214 217 218 223 225 224 225 224 226 225 228 232 232 233 234 237 235 234 236 236 241 244 244 238 227 207 183 164 161 161 158 162 163 159 160 164 162 158 158
331 339 172 184 158 250 195 200 259 258 256 280 278 139 82 240 248 284 298 297 325 354 307 282 260 252 242 247 248 256 273 234 240 263 305 296 310 311 292 283 255 243 231 228 224 223 226 224 219 220 225 226 227 225 221 216 214 216 222 222 223 229 229 224 224 226 228 227 229 233 233 232 235 241 238 235 235 233 234 231 218 197 181 177 171 166 168 166 161 161 164 167 165 161 158 155 157
320 217 184 216 193 222 216 221 261 267 267 282 309 94 154 246 93 316 297 298 314 308 290 285 256 192 242 263 274 257 264 260 213 226 274 295 278 283 289 273 258 255 243 228 225 228 230 228 224 226 231 232 233 231 227 227 225 224 229 229 228 231 231 226 224 226 228 229 230 231 231 230 233 242 240 233 231 225 218 204 183 168 166 168 170 172 173 169 163 161 165 168 164 160 159 157 157
8 151 178 241 233 232 239 254 250 243 269 316 324 79 155 200 274 303 305 300 296 282 265 254 277 141 246 274 288 266 272 274 127 200 268 314 269 278 281 264 258 251 243 226 226 237 237 229 223 225 230 234 236 235 232 233 231 231 233 233 233 232 232 230 227 226 228 230 230 231 231 232 233 240 236 228 227 216 199 191 178 166 166 171 173 175 176 173 168 165 166 165 163 164 163 159 159
138 140 121 235 259 350 251 248 235 239 269 0 296 25 152 226 291 307 311 309 299 261 242 236 279 289 258 248 218 248 318 7 95 199 231 283 277 277 271 262 249 239 236 224 228 238 243 236 222 221 224 229 233 235 235 234 233 234 235 236 238 236 235 234 231 228 230 231 231 233 232 233 233 235 234 225 223 206 191 192 183 170 171 175 175 175 175 173 170 169 170 166 166 174 172 162 163
186 187 124 161 141 234 252 255 260 263 302 110 276 280 269 280 310 309 311 315 304 172 204 228 283 284 272 255 227 244 259 254 259 247 234 264 278 276 264 255 246 239 234 223 227 233 240 241 231 223 222 225 227 231 233 234 238 238 239 240 241 240 237 235 233 230 231 232 232 234 233 233 234 232 229 226 219 199 192 194 183 177 178 177 175 175 173 172 172 172 175 176 174 177 175 165 165
201 217 74 249 207 222 258 261 266 271 259 179 266 270 281 294 301 290 296 301 295 290 244 214 228 267 281 99 252 243 243 244 244 254 256 263 271 272 262 251 245 239 238 227 227 232 233 237 238 230 222 223 226 231 235 238 244 245 245 244 243 242 238 234 233 233 233 234 233 234 234 235 235 229 225 228 217 197 195 193 181 179 178 174 174 174 171 173 177 176 177 180 177 171 171 169 167
189 262 197 254 250 244 258 258 260 260 244 251 261 259 268 278 273 271 282 284 289 293 278 237 206 252 302 275 262 277 232 244 242 253 258 261 264 265 262 253 244 238 241 235 230 234 232 234 237 232 225 229 232 236 242 242 247 250 250 248 245 242 240 237 234 235 235 235 235 234 234 234 231 226 225 227 211 197 198 193 181 177 176 174 174 174 173 176 179 179 177 175 175 171 170 172 169
180 319 236 246 257 257 261 257 250 220 237 252 266 264 265 268 265 260 269 283 290 292 325 44 217 242 282 287 275 271 250 258 254 260 262 262 261 259 260 254 247 239 239 240 237 233 233 234 235 236 234 238 239 240 242 242 247 252 252 251 248 245 242 240 237 237 236 236 237 235 234 231 227 223 226 226 210 201 199 192 183 179 179 177 175 173 174 178 179 180 177 172 172 170 170 172 171
207 117 248 251 242 258 271 275 266 256 260 268 274 263 265 266 261 257 248 266 283 283 257 149 234 247 263 278 275 263 276 283 270 265 267 261 256 257 257 252 249 244 239 241 241 234 234 236 236 240 244 243 240 239 240 240 244 251 256 255 254 250 245 243 241 240 238 238 237 237 236 232 229 223 224 225 214 205 197 190 184 181 180 178 176 175 178 184 184 181 177 170 168 168 171 174 173
241 174 203 255 252 265 283 293 289 295 288 275 274 250 253 234 226 262 265 277 293 290 253 196 245 290 258 271 278 275 277 280 271 261 266 262 254 255 252 250 251 248 242 240 241 236 234 238 241 243 245 246 244 242 240 240 243 249 258 260 260 257 252 247 245 244 242 242 240 240 239 235 233 225 224 226 217 208 198 189 184 181 179 179 179 179 184 187 184 180 177 171 170 171 173 176 175
246 196 223 259 265 275 283 291 292 298 290 269 266 115 183 221 227 294 300 296 291 289 276 201 215 321 269 282 287 276 266 260 264 265 267 262 253 254 252 250 251 249 246 244 244 240 234 237 241 241 242 246 248 247 243 242 243 247 253 258 262 260 258 254 250 249 246 245 243 243 242 239 238 230 227 226 217 208 196 186 181 181 180 178 179 181 185 185 181 177 176 173 175 177 174 175 175
236 211 245 264 264 269 270 282 288 288 290 124 138 163 207 242 268 298 292 294 292 293 7 185 194 236 262 274 272 268 226 225 266 283 275 263 255 254 252 249 250 251 249 248 247 246 240 237 238 238 240 244 248 249 247 245 242 245 249 253 262 263 263 262 257 254 250 248 246 245 243 241 240 236 232 223 214 205 192 184 181 182 181 179 179 180 180 180 178 175 176 177 180 182 177 175 176
232 197 241 264 253 253 239 258 284 283 282 106 126 156 229 254 261 274 272 286 303 57 110 186 174 227 261 247 275 305 51 297 296 306 292 273 262 257 254 250 250 251 251 250 249 248 243 240 241 239 239 244 248 249 252 251 244 242 246 252 256 259 264 269 268 261 253 252 251 248 243 241 240 237 233 223 212 200 190 187 183 182 181 178 179 178 175 177 180 180 181 183 185 184 179 178 177
216 204 225 259 251 250 220 228 265 269 266 138 120 143 265 272 229 263 288 286 291 172 184 208 184 243 270 243 273 308 313 296 301 305 302 287 272 263 258 253 252 252 254 252 248 246 242 240 242 241 238 240 246 248 251 257 252 242 244 251 251 256 267 275 276 263 253 255 256 251 245 243 241 235 231 221 207 196 188 184 181 180 177 176 178 178 177 182 186 185 184 185 185 183 182 180 178
186 219 235 248 242 243 211 205 238 283 314 208 170 189 279 295 244 245 299 245 264 253 229 232 200 230 249 249 273 290 290 293 298 300 299 285 274 264 257 251 250 251 256 257 253 248 241 238 239 241 239 239 243 245 248 255 258 249 244 250 252 258 270 279 278 261 252 259 259 254 247 242 241 236 226 210 197 191 184 180 181 180 178 179 180 179 182 187 187 183 182 184 183 183 184 181 182
195 219 238 244 244 247 220 228 243 303 300 280 269 237 275 294 290 286 280 245 251 255 253 245 224 223 239 250 266 273 279 288 292 293 285 272 264 258 256 247 243 246 254 259 259 255 248 241 238 238 238 238 241 244 248 253 258 254 249 252 254 259 268 273 274 263 257 258 252 247 239 231 233 226 210 197 190 186 182 180 181 179 182 184 181 179 182 185 184 182 183 185 185 185 184 180 183
217 230 238 244 248 246 207 246 254 256 275 290 291 274 266 284 298 316 287 280 273 268 272 260 247 243 243 250 254 260 271 279 282 279 269 266 261 259 263 257 248 246 250 253 255 260 257 248 242 239 237 236 238 242 247 251 256 254 251 253 253 258 265 267 270 266 256 247 231 225 220 208 205 195 188 188 188 186 183 182 182 182 185 185 180 179 180 182 184 184 185 187 188 187 184 181 183
223 228 242 249 251 250 225 243 251 252 267 285 286 282 269 273 286 287 282 290 286 274 278 277 279 282 279 276 263 250 261 271 271 265 262 264 262 259 262 261 257 254 252 252 254 258 257 251 249 244 238 235 235 239 244 248 251 249 248 253 252 252 260 263 270 265 246 236 220 209 203 192 184 181 182 184 186 185 182 184 185 185 185 183 182 183 184 187 187 184 185 187 189 188 186 184 184
207 210 245 257 237 256 242 227 243 261 267 272 276 278 279 280 265 259 279 292 285 274 280 283 295 299 297 301 295 277 269 268 264 257 255 259 260 259 258 260 264 264 260 259 257 257 256 253 253 248 239 236 233 233 239 242 243 243 242 249 251 247 250 258 268 264 239 226 220 207 192 187 184 185 186 184 185 186 183 184 185 185 184 182 181 184 189 191 187 184 187 188 187 188 190 188 187
227 222 246 260 243 259 259 232 240 257 264 263 266 272 287 299 262 255 268 280 279 285 297 296 296 297 297 301 297 287 280 272 266 258 253 254 257 257 258 263 267 267 262 265 263 258 258 257 254 246 239 238 236 231 233 237 237 237 237 246 249 244 243 250 259 261 236 217 213 212 199 192 192 192 189 186 186 187 185 184 185 185 183 181 181 185 188 188 188 188 190 190 188 189 192 194 192
250 237 240 254 250 255 267 268 229 227 255 264 267 280 302 288 277 267 255 262 271 282 296 296 292 294 296 298 288 282 278 275 273 266 261 257 256 257 259 262 266 264 261 267 267 260 260 260 251 239 237 237 236 232 229 232 233 232 235 243 244 240 234 240 248 253 241 217 206 207 206 202 198 195 192 189 189 189 187 187 189 188 185 185 185 187 187 187 189 189 191 193 193 194 196 198 197
245 253 249 257 255 257 265 265 226 236 257 265 279 291 282 272 279 279 254 258 269 282 295 291 289 293 293 289 281 280 278 273 271 269 268 262 261 265 264 265 269 265 263 270 270 263 264 263 248 234 236 232 232 231 227 228 230 229 231 237 239 236 230 229 238 242 242 228 210 202 204 207 204 200 196 193 193 193 192 192 193 193 191 190 189 190 190 189 191 191 193 195 196 199 200 201 200
231 254 267 268 269 260 261 254 246 253 258 266 279 277 270 267 277 280 269 268 272 284 297 290 289 290 281 277 280 284 284 278 273 275 274 265 267 274 271 270 272 265 268 275 272 268 269 264 250 237 233 230 229 229 226 228 228 226 228 234 235 236 231 225 231 234 234 233 223 209 204 206 205 203 202 198 196 195 196 196 195 195 193 192 191 192 195 195 194 195 195 196 198 200 201 202 203
225 258 287 279 277 276 273 265 255 253 254 249 263 271 272 269 278 274 266 264 276 290 290 286 289 288 283 281 284 287 292 292 288 289 291 284 272 272 273 269 267 267 274 278 274 273 271 264 256 244 232 229 226 224 228 229 226 223 224 230 232 233 231 225 229 231 229 230 230 224 214 210 207 205 203 200 198 197 197 195 193 193 193 195 196 196 199 200 198 197 197 198 200 201 203 205 205
329 291 295 277 272 273 269 266 262 256 253 232 242 269 275 165 269 265 231 191 251 290 289 293 291 292 296 292 291 293 292 292 294 298 300 297 286 277 283 274 265 273 278 278 277 276 272 268 264 251 235 227 222 222 228 230 227 223 222 226 228 231 230 226 228 228 229 230 232 231 225 221 215 208 203 199 198 196 193 191 191 193 194 197 200 200 200 201 201 200 200 201 201 203 204 206 207
333 314 298 282 273 263 247 252 258 245 251 231 227 265 271 181 225 253 237 154 297 309 300 298 292 291 295 292 295 296 287 289 294 297 294 298 300 297 296 289 281 282 278 279 281 278 274 273 267 254 237 225 222 222 226 231 229 225 223 222 224 228 227 225 225 226 227 230 232 230 228 226 221 215 209 203 200 197 193 193 194 196 198 199 201 203 202 201 202 202 201 202 203 204 206 207 209
310 317 302 295 290 271 244 234 230 207 225 186 200 263 259 205 219 240 235 243 304 308 299 299 295 289 289 291 298 293 288 292 294 293 293 300 303 302 298 297 297 289 284 284 283 280 278 273 264 254 236 224 224 223 223 231 231 226 225 223 225 228 226 226 226 225 225 228 230 228 227 227 224 222 217 209 205 201 199 198 198 201 203 204 204 206 205 203 202 201 200 201 203 204 205 207 209
285 282 300 301 296 279 219 163 131 214 213 151 194 265 255 236 243 210 163 258 310 310 302 303 298 294 294 298 301 293 293 294 293 298 301 304 305 306 300 301 303 292 290 287 282 285 283 275 267 257 241 229 225 223 221 227 231 227 225 224 226 229 228 229 228 225 225 227 230 227 226 227 226 225 220 214 210 207 205 205 206 207 206 207 208 209 208 207 205 203 201 200 202 204 206 208 211
281 281 262 278 282 268 151 158 174 234 195 161 213 262 267 276 278 183 158 230 308 305 299 299 294 294 302 304 300 294 296 298 301 304 307 310 309 310 305 306 308 296 292 287 282 285 282 274 270 263 251 239 227 224 221 223 230 226 224 223 222 226 227 228 228 226 226 227 230 229 227 228 226 224 221 217 215 213 212 212 212 211 209 209 210 211 212 211 210 207 204 201 200 202 206 210 212
238 265 252 225 241 256 210 194 205 229 169 174 217 265 256 260 280 261 178 209 272 292 291 289 288 294 302 301 297 295 299 302 307 312 323 331 323 320 313 311 313 305 295 290 286 283 276 268 269 265 255 242 230 225 222 225 231 229 227 224 221 222 223 225 226 227 228 229 230 231 229 230 229 224 220 220 220 218 216 216 215 214 212 212 212 212 212 212 212 210 208 205 202 201 205 210 212
196 224 256 244 234 270 277 185 182 216 178 187 215 256 268 252 278 284 272 269 282 286 280 277 284 294 297 293 293 293 299 307 315 336 353 347 335 329 322 316 318 316 306 296 289 282 276 266 264 265 252 240 234 228 223 227 232 232 231 228 224 224 226 227 227 230 231 232 233 232 231 232 233 228 221 219 222 222 220 218 216 215 214 214 214 212 212 213 213 211 209 207 206 205 206 209 209
211 198 241 257 246 261 275 222 158 178 209 215 219 237 259 262 276 282 282 284 283 275 273 278 286 288 286 285 286 285 292 301 312 341 354 348 340 335 331 329 329 331 326 314 298 283 278 267 259 262 254 238 233 228 225 229 233 233 233 231 227 227 230 228 227 231 232 233 235 233 232 232 233 233 227 222 221 221 220 216 214 214 214 214 213 212 212 213 214 214 211 209 208 209 210 210 208
241 212 231 257 248 241 255 254 171 163 217 242 242 245 256 262 267 272 277 277 270 270 273 281 283 280 280 280 279 279 288 294 311 346 345 343 343 340 338 338 337 340 340 331 318 294 280 270 256 258 253 236 229 227 225 230 234 233 231 230 226 226 228 226 226 229 229 232 235 233 232 232 230 231 230 227 223 220 217 213 213 215 215 214 213 212 212 212 214 215 216 214 212 212 215 215 212
276 258 258 267 263 250 258 262 207 181 251 256 252 258 261 262 263 267 273 271 266 271 274 277 272 272 276 274 273 276 285 298 340 354 338 341 344 339 338 342 344 344 344 340 334 316 291 276 260 255 247 233 226 223 225 229 230 229 225 222 223 225 226 226 227 228 227 230 234 235 234 233 231 229 229 227 225 222 217 213 213 213 214 213 212 212 213 216 219 219 218 218 215 212 213 215 213
275 264 263 260 266 264 267 272 183 144 266 258 248 260 263 262 266 267 271 271 267 268 269 268 261 259 261 262 267 277 287 303 339 342 330 337 336 334 335 342 345 345 346 346 344 333 312 291 269 258 244 229 220 220 226 227 224 223 219 217 221 224 227 228 230 231 231 231 233 237 237 235 232 230 228 225 222 221 220 218 216 213 213 213 212 213 217 221 221 219 217 217 216 212 209 211 211
245 256 263 260 259 260 268 279 194 139 246 259 251 261 263 262 264 262 264 264 261 260 257 254 256 255 252 256 265 280 293 299 308 317 322 327 328 333 336 341 344 344 348 350 350 343 329 308 282 264 247 229 221 224 229 228 226 225 222 220 221 223 227 228 229 231 232 232 233 235 235 234 231 229 228 225 222 223 224 226 226 222 220 220 219 218 220 222 219 216 215 213 213 211 208 211 209
235 244 256 259 259 266 272 270 173 146 228 273 281 279 273 262 258 256 254 251 252 254 249 249 253 250 247 245 249 273 286 289 299 314 317 324 329 334 339 346 348 346 350 353 352 350 341 326 301 275 256 237 228 230 232 232 233 231 227 223 220 222 225 227 229 232 233 234 233 233 234 233 232 230 230 229 228 230 233 236 239 238 234 231 227 223 222 222 218 216 214 211 209 207 211 215 210
231 231 241 250 251 262 263 239 117 210 241 281 290 283 272 257 252 251 247 245 250 252 251 257 255 247 252 243 173 255 268 273 289 305 315 328 332 340 349 349 349 350 354 356 355 353 347 336 317 290 267 247 238 237 233 233 234 227 220 218 220 225 228 230 231 233 234 235 236 235 235 235 235 234 233 234 234 236 238 240 242 243 241 239 234 230 229 227 223 221 217 215 210 203 208 215 213
225 223 232 247 246 245 253 280 346 282 247 272 293 288 271 231 217 217 210 226 249 248 249 256 248 234 244 258 211 231 247 261 286 307 322 333 336 344 352 353 354 357 357 355 355 351 343 335 321 302 277 253 246 241 231 228 227 219 212 213 218 222 226 228 228 232 235 236 238 239 239 239 238 237 236 234 233 233 234 235 238 241 241 241 239 236 235 234 231 227 221 219 216 210 209 213 214
230 222 226 242 251 254 263 291 335 290 248 67 333 314 288 164 166 180 156 167 203 208 237 246 237 205 201 231 208 202 230 246 272 307 323 330 337 342 349 357 357 356 354 352 350 348 342 337 326 310 289 264 251 242 229 220 216 212 205 198 200 208 214 219 223 231 236 237 239 241 241 241 239 239 236 232 228 225 225 227 233 239 242 242 240 239 237 236 235 233 229 225 223 220 217 214 215
249 221 219 236 248 257 266 271 273 277 278 48 23 310 284 214 167 174 154 180 194 183 226 241 234 202 189 215 197 187 237 238 240 283 315 326 336 342 346 353 354 349 347 347 346 345 344 342 334 320 302 278 255 241 225 218 215 212 209 207 213 218 219 223 225 231 239 242 242 242 242 241 240 240 238 233 227 219 213 212 217 228 235 238 240 240 240 239 238 237 235 231 228 226 221 217 217
249 97 191 220 231 237 240 250 247 274 308 306 178 234 273 280 182 160 150 186 205 208 230 233 226 223 225 249 250 233 260 268 269 287 321 331 336 342 340 342 347 344 342 346 346 342 341 339 333 320 304 281 256 241 222 220 223 218 216 219 225 225 226 234 236 237 241 241 237 236 237 237 235 235 236 233 225 215 205 199 199 208 218 225 229 232 236 238 238 237 236 235 233 232 229 227 226
232 92 119 150 173 212 215 242 255 280 311 274 200 191 260 274 161 131 158 196 211 223 228 224 217 222 240 265 265 252 248 269 312 298 306 338 333 336 330 329 340 345 348 352 349 344 340 332 326 308 283 269 252 238 222 220 224 224 223 221 225 230 231 237 237 231 225 215 207 203 199 200 200 201 208 216 220 217 209 199 195 200 208 215 218 222 227 230 233 235 234 233 233 233 235 234 233
130 128 120 100 107 115 182 249 272 277 273 260 218 182 234 277 159 146 188 203 211 218 221 220 214 225 256 266 271 267 233 169 188 228 213 297 318 335 331 333 352 359 2 2 358 356 351 341 336 313 269 255 242 232 224 224 225 226 227 226 226 226 220 216 212 206 205 202 197 194 193 196 197 197 196 202 211 212 208 200 195 201 208 213 217 220 223 226 229 231 231 231 231 230 230 231 230
134 152 144 127 154 127 208 241 278 272 258 251 222 194 208 268 156 156 176 195 207 206 211 219 220 241 254 256 263 270 274 142 167 193 170 162 163 75 10 10 15 13 15 16 14 11 7 6 3 354 308 234 224 216 214 218 217 215 216 218 214 208 202 197 192 191 196 198 199 196 196 198 199 198 194 196 202 203 202 201 200 205 209 212 216 220 223 226 229 232 233 234 234 233 232 232 232
165 178 190 232 215 180 221 200 177 250 257 261 203 192 203 233 219 156 160 194 220 215 212 212 215 229 250 263 261 242 282 287 190 206 176 165 163 99 40 28 22 18 20 19 17 17 18 21 21 25 36 37 41 97 167 192 196 198 201 199 195 198 203 201 196 191 188 191 194 188 188 195 194 191 190 193 199 199 199 201 203 206 211 213 216 219 223 228 230 234 235 235 235 236 236 236 236
202 191 189 234 251 233 238 216 186 239 254 78 92 164 211 239 250 210 190 199 213 221 224 211 210 229 259 273 277 99 134 248 268 259 260 100 52 31 20 18 16 17 20 17 18 22 26 29 30 38 42 41 48 58 65 94 142 174 192 194 194 199 199 199 200 191 184 184 186 182 181 188 187 184 191 197 200 199 199 200 201 204 208 211 216 219 223 226 228 230 233 234 233 234 235 235 235
196 195 190 211 230 241 244 232 222 254 258 103 97 120 243 257 252 219 214 216 208 210 223 224 232 254 266 271 287 26 259 240 245 251 297 17 28 26 16 12 14 15 16 18 22 23 27 32 31 39 46 47 55 61 64 68 72 77 82 102 165 189 189 191 194 182 183 185 186 188 185 184 185 186 196 204 206 202 202 203 199 197 198 200 207 212 218 223 226 228 230 232 233 233 235 236 236
193 192 198 221 227 242 256 255 260 283 299 150 127 157 243 247 93 197 215 222 209 213 229 242 263 260 260 270 279 283 267 244 220 235 51 44 32 27 22 18 16 16 17 20 23 21 24 29 29 34 38 38 48 60 72 77 78 81 82 84 100 125 134 153 160 151 162 173 181 188 182 179 182 184 193 203 205 200 202 206 201 198 198 200 203 205 211 219 223 226 229 233 235 231 229 233 236
184 156 191 235 238 233 267 293 280 301 307 260 182 216 241 196 97 152 152 133 174 214 245 254 262 253 252 269 256 222 241 230 200 189 75 62 46 34 31 27 21 22 22 23 24 23 24 27 30 37 37 37 44 53 67 81 90 98 105 115 127 136 125 100 96 133 158 163 164 162 165 177 179 185 193 196 196 196 199 204 204 205 205 204 206 205 208 218 226 229 229 233 238 235 230 229 230
155 159 189 197 11 252 259 280 273 260 281 264 215 249 257 232 190 176 164 220 226 206 221 237 253 257 254 256 217 182 212 192 152 126 83 62 55 48 41 38 31 29 30 30 30 27 27 29 31 35 37 37 41 45 54 70 85 94 98 105 112 120 122 109 105 140 166 169 168 165 172 186 188 194 201 200 198 200 202 204 205 211 214 211 213 213 213 220 228 231 228 233 239 240 239 235 227
138 180 178 120 52 325 268 273 285 263 266 268 255 263 268 265 258 164 159 213 225 214 224 230 246 253 254 296 51 74 182 139 131 121 88 67 62 58 52 51 46 43 41 38 35 33 33 33 33 35 36 34 35 42 53 67 82 87 88 95 102 106 115 118 121 133 151 163 166 167 175 190 197 205 211 211 213 214 213 211 208 211 214 212 217 221 226 229 232 232 232 239 242 237 234 231 226
71 208 132 112 220 202 166 235 271 269 264 274 273 275 277 264 242 160 161 201 218 225 237 243 255 264 304 11 26 149 176 145 139 124 98 83 76 64 59 58 52 50 47 43 42 41 40 38 35 37 37 35 37 45 57 67 76 81 85 92 98 102 108 113 115 117 124 134 136 138 146 154 161 175 186 192 203 207 209 212 212 213 213 211 213 216 222 228 231 232 234 240 244 241 235 229 230
47 297 161 332 282 227 182 209 262 268 267 281 289 290 287 259 173 158 191 248 241 245 270 270 283 356 30 7 346 329 128 134 133 123 111 93 79 66 61 58 50 49 47 45 47 46 44 42 38 39 38 38 43 49 56 60 64 72 81 87 91 94 99 101 102 103 105 107 110 114 114 113 116 120 124 129 138 147 154 171 192 207 214 215 216 219 222 225 223 225 227 226 232 241 242 235 234
176 196 185 180 180 255 284 260 211 252 264 273 286 287 282 109 98 134 208 298 292 292 296 299 9 32 13 9 3 349 15 107 124 119 110 92 83 72 65 60 53 51 46 44 46 45 45 44 39 38 39 40 44 49 51 51 56 68 78 83 87 89 92 95 97 99 99 95 95 98 97 97 101 103 103 106 110 115 117 118 123 135 155 180 203 221 229 231 227 228 231 230 233 241 246 243 239
183 191 190 187 177 170 237 246 207 176 249 256 266 279 277 211 102 112 111 348 328 338 336 348 20 10 1 35 45 2 17 89 99 97 94 87 86 79 71 67 58 53 47 44 43 43 43 42 39 39 39 39 44 50 52 50 54 66 74 79 84 87 89 91 92 91 86 82 77 74 75 77 79 80 81 84 88 93 98 102 107 113 115 113 110 104 242 243 245 245 245 246 247 248 251 251 248